Location: Newark
(41.0400°S, 62.7845°W)
Time: 09:07:41
(UTC+00:00)

Transit 2A - Pass Details

Date: 05 December 2021
Orbit: 591 x 967 km, 66.7° (Epoch: 19 January)

Event Time Altitude Azimuth Distance (km) Brightness Sun altitude
Rises 00:59:34 0° 211° (SSW) 2,865 10.7 -13.8°
Reaches altitude 10° 01:01:47 10° 210° (SSW) 1,964 9.5 -14.1°
Maximum altitude 01:06:10 87° 296° (WNW) 629 5.5 -14.6°
Enters shadow 01:08:52 24° 27° (NNE) 1,307 6.6 -15.0°
Drops below altitude 10° 01:10:46 10° 27° (NNE) 2,050 - -15.2°
Sets 01:13:07 0° 27° (NNE) 3,002 - -15.5°
